sat.trackr.live / text

‹ back to catalog

STARLINK-31513

NORAD 59529 · 2024-073U

PAYLOAD ACTIVE UNKNOWN

§ Identity

Operator
Country
US
Launch date
2024-04-17
Launch site
AFETR
Launch vehicle
Mass (kg)
RCS (m²)

Purposes: comms

External: N2YO · Heavens-Above · Gunter

§ Orbital elements

Epoch: 2026-09-21T03:16:07.428576Z

Period
94.27 min
Inclination
43.0044°
Eccentricity
0.0001501
Mean motion
15.27575482 rev/d
Perigee alt
482.0 km
Apogee alt
484.1 km
Semi-major
6,861.2 km
B*
3.7457e-5
RAAN
291.0002°
Arg perigee
280.1760°
Mean anomaly
79.8922°
Rev number
13,610

§ Raw data

STARLINK-315131 59529U 24073U   26264.13619709  .00000768  00000+0  37457-4 0  99922 59529  43.0044 291.0002 0001501 280.1760  79.8922 15.27575482136106

JSON: /api/v1/satellites/59529 · /tle

For live sub-satellite position, see the globe view (requires WebGL).

§ Visibility from observer

Set your observer location to see the next 7 days of passes ≥ 10°. The values pass through the URL so the page stays shareable.

No JS? Fill the form by hand. The geolocation button needs JavaScript.